Location: Wiesbaden
(50.0830°N, 8.2500°E)
Time: 20:00:21
(UTC+02:00)

ISS - Pass Details

Date: 17 July 2019
Orbit: 409 x 418 km, 51.6° (Epoch: 20 July)

Event Time Altitude Azimuth Distance (km) Brightness Sun altitude
Rises 00:40:23 0° 253° (WSW) 2,347 0.0 -17.7°
Reaches altitude 10° 00:42:28 10° 254° (WSW) 1,485 -1.0 -17.8°
Maximum altitude 00:45:48 89° 340° (NNW) 418 -3.9 -17.9°
Drops below altitude 10° 00:49:09 10° 75° (ENE) 1,484 -0.9 -18.0°
Sets 00:51:14 0° 75° (ENE) 2,346 0.1 -18.0°
